[[{"header":{"parameterUnit":"m.s-1","parameterCategory":1,"la1":30.2991,"la2":30.254,"lo1":-89.0895,"lo2":-89.0444,"dy":0.0017,"dx":0.0017,"nx":28,"ny":28,"refTime":"2024-03-17T03:00:00:Z","depth":0,"parameterNumber":2,"parameterNumberName":"U-component_of_WINDS"},"data":[0,0,0,0,0,0,0,0,0,0,0,0,0,0,0,0,0,0,0,0,0,0,0,0,0,0,0,0,0,0,0,0,0,0,0,0,0,0,0,0,0,0,0,0,0,0,0,0,0,0,0,0,0,0,0,0,0,0,0.3019,0.302,0,0.3092,0.3092,0.3093,0.3119,0.3118,0.3118,0.3118,0.3193,0.3195,0.3197,0,0,0,0,0,0,0,0,0,0,0,0,0,0.2903,0.2905,0.3019,0.302,0.3021,0.3091,0.3092,0.3093,0.3119,0.3118,0.3118,0.3118,0.3192,0.3195,0.3197,0,0,0,0,0,0,0,0,0,0,0,0,0,0.2962,0.2906,0.3019,0.3042,0.3045,0.3091,0.3092,0.3094,0.3119,0.3118,0.3118,0.3117,0.3191,0.3194,0.3198,0.3227,0,0,0.3208,0.3209,0,0,0,0,0,0,0,0,0.2959,0.2966,0.3038,0.3041,0.3044,0.3096,0.3079,0.3138,0.3119,0.3091,0.3118,0.3117,0.3161,0.3167,0.3181,0.323,0.3233,0.3208,0.321,0.3212,0.3213,0,0,0,0,0,0,0,0.2955,0.2964,0.3048,0.3039,0.3042,0.3049,0.3057,0.309,0.3127,0.3093,0.3095,0.3103,0.3162,0.3178,0.3183,0.3234,0.3208,0.3211,0.3213,0.3215,0.331,0.3311,0,0,0,0,0,0,0.2947,0.296,0.3046,0.305,0.2999,0.3051,0.306,0.3079,0.3127,0.3134,0.3104,0.3104,0.3172,0.3179,0.3186,0.3223,0.3212,0.3215,0.3217,0.331,0.3311,0.3311,0,0,0,0,0,0,0.2944,0.2954,0.3043,0.3006,0.3017,0.3054,0.3075,0.3081,0.3097,0.3135,0.3141,0.3113,0.3172,0.3181,0.3216,0.3226,0.3216,0.3219,0.3309,0.331,0.3311,0.3297,0,0,0,0,0,0,0.2941,0.2953,0.2964,0.3006,0.3019,0.3072,0.3076,0.3083,0.3102,0.3104,0.3145,0.3151,0.3173,0.3211,0.3219,0.323,0.3222,0.3309,0.331,0.3311,0.3296,0.3297,0.3297,0,0,0,0,0,0.2936,0.2958,0.2965,0.2975,0.3034,0.3072,0.308,0.3103,0.3103,0.3115,0.3139,0.315,0.3223,0.3214,0.3224,0.3236,0.3308,0.3309,0.3311,0.3296,0.3297,0.3297,0,0,0,0,0,0,0.2917,0.2964,0.2972,0.3007,0.3035,0.3076,0.3092,0.3103,0.3133,0.3133,0.3161,0.317,0.3203,0.3223,0.3212,0.3266,0.3266,0.3269,0.3252,0.3253,0.3253,0.3248,0.3225,0,0,0,0,0,0.2917,0.2944,0.2983,0.301,0.3024,0.3055,0.3073,0.3088,0.3119,0.3131,0.3158,0.3188,0.3217,0.3236,0.3265,0.3299,0.3308,0.3312,0.3312,0.3312,0.3315,0.3334,0.3336,0.3315,0.3315,0.3315,0,0,0.2917,0.2946,0.2961,0.3007,0.3031,0.3058,0.3065,0.3094,0.3114,0.3136,0.317,0.3191,0.3226,0.326,0.3277,0.3278,0.3323,0.3314,0.3314,0.3316,0.3336,0.3337,0.3339,0.3316,0.3316,0.3316,0,0,0.2931,0.2955,0.2981,0.3004,0.304,0.306,0.3066,0.3105,0.312,0.3155,0.3171,0.3196,0.3246,0.327,0.3289,0.3311,0.3322,0.3319,0.3321,0.334,0.3341,0.3343,0.3351,0.3353,0.3322,0.3322,0.3322,0,0.2926,0.2968,0.2992,0.302,0.3039,0.3059,0.3085,0.3107,0.315,0.3163,0.3164,0.3227,0.3252,0.3292,0.3297,0.3311,0.3319,0.3315,0.3339,0.3341,0.3343,0.3351,0.3353,0.3321,0.3321,0.3321,0.3321,0,0.2961,0.2989,0.3005,0.3046,0.3068,0.3094,0.3122,0.3141,0.3155,0.3175,0.321,0.3241,0.3276,0.3287,0.3301,0.3329,0.3328,0.3334,0.3334,0.3344,0.3352,0.3355,0.332,0.3321,0.3321,0.3321,0,0,0.2965,0.3018,0.3024,0.3043,0.3083,0.3106,0.3133,0.3167,0.3183,0.3212,0.3235,0.3277,0.3282,0.3303,0.3319,0.3335,0.335,0.3339,0.334,0.334,0.3383,0.3379,0.3382,0.3358,0.3359,0.3359,0.338,0,0.2984,0.3034,0.3056,0.3095,0.3122,0.314,0.3164,0.3191,0.3211,0.3236,0.3258,0.3287,0.3292,0.3304,0.3321,0.3345,0.336,0.3344,0.338,0.3381,0.3371,0.3386,0.3382,0.3401,0.3384,0.3384,0.3384,0,0.3013,0.3042,0.3084,0.312,0.3132,0.3153,0.3186,0.321,0.3241,0.3255,0.3278,0.3293,0.3323,0.3321,0.3361,0.335,0.3366,0.338,0.3382,0.3386,0.3384,0.3391,0.3407,0.341,0.3389,0.3389,0.3389,0,0.3012,0.3061,0.3092,0.3108,0.3151,0.3166,0.3184,0.3215,0.3234,0.3263,0.3276,0.3308,0.3325,0.3349,0.3373,0.337,0.3412,0.3412,0.3423,0.3423,0.3432,0.3431,0.345,0.3442,0.3442,0.3442,0.3442,0,0.3031,0.3056,0.3092,0.3112,0.314,0.3165,0.3192,0.3213,0.324,0.3263,0.3281,0.3303,0.3333,0.3359,0.3377,0.3408,0.3416,0.3427,0.3432,0.3426,0.3424,0.3437,0.3436,0.3442,0.3442,0.3442,0.3442,0,0.3035,0.306,0.3096,0.3134,0.3144,0.3163,0.3196,0.3215,0.3235,0.3265,0.3273,0.3305,0.3336,0.3362,0.3403,0.3415,0.3447,0.3453,0.3436,0.3439,0.3449,0.3447,0.3478,0.3483,0.347,0.347,0.347,0,0.3046,0.3065,0.3105,0.3122,0.314,0.3167,0.3187,0.3212,0.3231,0.3268,0.3283,0.3315,0.3342,0.339,0.3417,0.3448,0.3455,0.3463,0.346,0.3453,0.3455,0.3454,0.3456,0.3464,0.3464,0.3464,0.3464,0,0.3062,0.3073,0.31,0.3131,0.3154,0.318,0.3206,0.3219,0.3249,0.327,0.3301,0.3322,0.3363,0.3395,0.3429,0.3449,0.3461,0.3464,0.3469,0.3462,0.3452,0.3458,0.3437,0.3464,0.3464,0.3464,0.3464,0.3464,0.3069,0.3087,0.3118,0.3147,0.317,0.3194,0.3214,0.3236,0.3263,0.3298,0.3311,0.3344,0.3374,0.3421,0.344,0.3466,0.3468,0.3474,0.3475,0.3477,0.3476,0.3448,0.3472,0.3472,0.3472,0.3472,0.3472,0,0.3086,0.3107,0.3133,0.317,0.3193,0.3202,0.3231,0.325,0.3278,0.3305,0.3331,0.3367,0.3398,0.3426,0.3459,0.3473,0.348,0.3481,0.348,0.3484,0.3472,0.3465,0.3475,0.3475,0.3475,0.3475,0.3475,0.3475,0.3098,0.3129,0.3143,0.3185,0.3206,0.3237,0.3253,0.3276,0.3297,0.3336,0.3362,0.338,0.3408,0.3442,0.347,0.3478,0.3489,0.3489,0.3498,0.3486,0.3485,0.3485,0.3478,0.3491,0.3491,0.3508,0.3508,0.3508]},{"header":{"parameterUnit":"m.s-1","parameterCategory":1,"la1":30.2991,"la2":30.254,"lo1":-89.0895,"lo2":-89.0444,"dy":0.0017,"dx":0.0017,"nx":28,"ny":28,"refTime":"2024-03-17T03:00:00:Z","depth":0,"parameterNumber":3,"parameterNumberName":"V-component_of_WINDS"},"data":[0,0,0,0,0,0,0,0,0,0,0,0,0,0,0,0,0,0,0,0,0,0,0,0,0,0,0,0,0,0,0,0,0,0,0,0,0,0,0,0,0,0,0,0,0,0,0,0,0,0,0,0,0,0,0,0,0,0,0.7204,0.7203,0,0.7115,0.7114,0.7113,0.7069,0.7069,0.7069,0.7069,0.6978,0.6976,0.6973,0,0,0,0,0,0,0,0,0,0,0,0,0,0.7336,0.7334,0.7204,0.7203,0.7202,0.7115,0.7114,0.7113,0.7069,0.7069,0.7069,0.7069,0.6979,0.6976,0.6973,0,0,0,0,0,0,0,0,0,0,0,0,0,0.7266,0.7333,0.7205,0.717,0.7166,0.7116,0.7114,0.7113,0.7069,0.7069,0.7069,0.7069,0.698,0.6976,0.6973,0.6951,0,0,0.6962,0.696,0,0,0,0,0,0,0,0,0.727,0.7262,0.7176,0.7172,0.7167,0.7103,0.7128,0.7059,0.7069,0.7105,0.7069,0.7068,0.702,0.7013,0.6996,0.6947,0.6943,0.6961,0.6959,0.6958,0.6957,0,0,0,0,0,0,0,0.7275,0.7265,0.7169,0.7175,0.7169,0.7158,0.7148,0.7114,0.7064,0.7102,0.7099,0.7089,0.7017,0.7,0.6994,0.6942,0.6962,0.6958,0.6956,0.6955,0.6871,0.687,0,0,0,0,0,0,0.7286,0.727,0.7172,0.7166,0.722,0.7156,0.7145,0.7124,0.7064,0.7055,0.7089,0.7087,0.7006,0.6998,0.699,0.6961,0.6958,0.6954,0.6952,0.6871,0.687,0.687,0,0,0,0,0,0,0.7289,0.7278,0.7176,0.7217,0.7203,0.7154,0.713,0.7122,0.7104,0.7054,0.7045,0.708,0.7006,0.6995,0.6961,0.6957,0.6953,0.695,0.6871,0.6871,0.687,0.6903,0,0,0,0,0,0,0.7293,0.7279,0.727,0.7217,0.7201,0.7148,0.713,0.712,0.7098,0.7095,0.7043,0.7035,0.7005,0.6967,0.6958,0.6952,0.6947,0.6871,0.6871,0.687,0.6902,0.6904,0.6906,0,0,0,0,0,0.7298,0.7283,0.727,0.7258,0.7189,0.7148,0.7139,0.7104,0.7098,0.7089,0.7057,0.7036,0.6959,0.6964,0.6953,0.6947,0.6871,0.6871,0.687,0.6901,0.6904,0.6906,0,0,0,0,0,0,0.7337,0.7275,0.726,0.7228,0.7193,0.714,0.7128,0.7108,0.7074,0.7073,0.7031,0.702,0.699,0.6965,0.6971,0.6923,0.6913,0.6911,0.694,0.6942,0.6944,0.6951,0.6944,0,0,0,0,0,0.7342,0.7313,0.7261,0.7238,0.7221,0.7177,0.7158,0.7134,0.7097,0.7082,0.7047,0.7012,0.698,0.696,0.6927,0.6898,0.6886,0.6889,0.6891,0.6892,0.6891,0.6874,0.6874,0.687,0.687,0.687,0,0,0.7352,0.7314,0.7299,0.7244,0.7215,0.7186,0.7165,0.7136,0.7114,0.7078,0.7043,0.7017,0.6975,0.6943,0.6927,0.6921,0.6889,0.6892,0.6894,0.6891,0.6873,0.6874,0.6874,0.687,0.687,0.687,0,0,0.7355,0.7324,0.7301,0.7272,0.7227,0.7198,0.7193,0.7143,0.7123,0.7088,0.706,0.7034,0.6979,0.695,0.6929,0.6921,0.6902,0.6912,0.6921,0.6905,0.6905,0.6906,0.6903,0.6902,0.691,0.6911,0.6911,0,0.7373,0.7328,0.7292,0.7264,0.7241,0.7206,0.7183,0.7156,0.7103,0.7088,0.7082,0.7013,0.6982,0.6943,0.6942,0.6925,0.6918,0.6917,0.6908,0.6908,0.6908,0.6905,0.6904,0.6912,0.6912,0.6912,0.6912,0,0.7352,0.7322,0.7309,0.7259,0.7234,0.7209,0.7168,0.7148,0.7127,0.7098,0.7063,0.7025,0.6984,0.6973,0.6952,0.6931,0.6929,0.6916,0.6906,0.691,0.6907,0.6905,0.6914,0.6914,0.6913,0.6913,0,0,0.7378,0.7308,0.7303,0.728,0.7229,0.7204,0.7178,0.7137,0.7121,0.7086,0.7062,0.7017,0.7005,0.698,0.6955,0.6941,0.6938,0.693,0.6928,0.6933,0.6912,0.6922,0.6922,0.6924,0.6924,0.6924,0.6916,0,0.7374,0.7323,0.729,0.7253,0.7224,0.7191,0.7168,0.7134,0.7107,0.7079,0.7049,0.7018,0.7004,0.6989,0.6973,0.6941,0.6933,0.6941,0.6902,0.6901,0.6914,0.692,0.693,0.6925,0.6914,0.6914,0.6914,0,0.7362,0.7328,0.7288,0.724,0.7226,0.7206,0.7167,0.714,0.7101,0.7082,0.7055,0.703,0.7,0.6993,0.6951,0.6958,0.694,0.6922,0.6921,0.6915,0.6908,0.6915,0.6922,0.6922,0.6911,0.6912,0.6912,0,0.7385,0.7329,0.7298,0.7279,0.7221,0.7208,0.7183,0.7144,0.7122,0.7088,0.7073,0.7036,0.7016,0.6988,0.6953,0.6951,0.6915,0.6905,0.6899,0.69,0.6893,0.6894,0.6898,0.6882,0.6882,0.6882,0.6882,0,0.7384,0.7361,0.7307,0.7288,0.7261,0.7223,0.7197,0.717,0.7136,0.7111,0.708,0.7057,0.7013,0.6985,0.6958,0.6928,0.6919,0.6904,0.6897,0.6906,0.6908,0.6894,0.6893,0.6882,0.6882,0.6882,0.6882,0,0.7404,0.7367,0.7331,0.728,0.7267,0.7249,0.7205,0.7186,0.7157,0.7126,0.7117,0.7072,0.7037,0.7,0.6953,0.6935,0.6907,0.6897,0.692,0.6916,0.6912,0.6913,0.6907,0.6904,0.6891,0.6891,0.6891,0,0.7406,0.7388,0.7334,0.7315,0.7292,0.7262,0.7239,0.7201,0.7178,0.7132,0.7118,0.7081,0.705,0.6997,0.696,0.6924,0.6913,0.6913,0.6908,0.6918,0.6913,0.6915,0.6913,0.6915,0.6916,0.6916,0.6916,0,0.7414,0.7396,0.7365,0.7327,0.7301,0.7269,0.7236,0.7223,0.7178,0.7154,0.7119,0.7094,0.7046,0.701,0.697,0.6945,0.6923,0.6918,0.6915,0.6925,0.6939,0.6931,0.6925,0.6919,0.6918,0.6918,0.6918,0.6918,0.7425,0.7407,0.7366,0.7332,0.7304,0.7274,0.7253,0.7221,0.7191,0.7149,0.7128,0.7092,0.7053,0.6997,0.6972,0.6944,0.6938,0.6933,0.6932,0.6931,0.6934,0.6943,0.6937,0.6937,0.6936,0.6936,0.6936,0,0.7431,0.7403,0.7372,0.7327,0.73,0.7282,0.7245,0.7224,0.7193,0.7158,0.7128,0.7087,0.7052,0.7012,0.6975,0.696,0.6949,0.6951,0.6952,0.6947,0.6942,0.6948,0.6961,0.6961,0.6961,0.6961,0.6961,0.6961,0.743,0.7399,0.7377,0.7331,0.7303,0.7268,0.7248,0.7221,0.7193,0.7148,0.7119,0.7093,0.7057,0.7017,0.6984,0.6973,0.6961,0.6966,0.6952,0.6949,0.6947,0.6945,0.6951,0.6964,0.6964,0.6959,0.6959,0.6959]}]]